User: anonymous   Login
Location: Arbon
(43.0005°N, 0.7472°E)
Time: 15:17:26
(UTC+00:00)
Language:

Landsat 5 - Orbit

View from above orbital plane
View from above orbital plane
View from above satellite
View from above satellite

Ground track
Ground track

The orbit data is extracted from the following two-line orbital elements,

1 14780U 84021A   20296.04602090  .00000130  00000-0  18034-4 0  9999
2 14780  98.1869  97.9319 0091220 108.2085 252.9088 14.92125802958201
Epoch (UTC): 22 October 2020 01:06:16
Eccentricity: 0.0091220
inclination: 98.1869°
perigee height: 528 km
apogee height: 655 km
right ascension of ascending node: 97.9319°
argument of perigee: 108.2085°
revolutions per day: 14.92125802
mean anomaly at epoch: 252.9088°
orbit number at epoch: 95820

The dashed part of the orbit path shows where the satellite is in the earth's shadow,  

DLR